Station Historical Data
Daily Summary for August 30, 2017 Units:  English    Metric   Both
« Previous Day
Next Day »
Daily Weekly Monthly Yearly Custom
  High: Low: Average:
Temperature: 72.8 °F 68.0 °F 69.8 °F
Dew Point: 68.0 °F 64.8 °F 66.3 °F
Humidity: 94% 81% 89%
Wind Speed: 1.0mph 0.0mph 0mph
Wind Gust: 2.0mph - -
Wind- - WNW
Pressure: 30.09 in 30.00 in -
Precipitation: 0.39 in    
Historical Graphs
 
 
Tabular Data for August 30, 2017
Time Temperature Dew Point Pressure Wind Wind Speed Wind Gust Humidity Rainfall Rate (Hourly) solar Conditions
00:00 72.0 °F 66.2 °F 30.02 in Calm     82% 0.00 in WeatherDisplay:10.37 W/m2 OVC
00:10 71.9 °F 66.1 °F 30.01 in Calm     82% 0.00 in WeatherDisplay:10.37 W/m2 OVC
00:15 71.7 °F 66.3 °F 30.00 in Calm     83% 0.00 in WeatherDisplay:10.37 W/m2 OVC
00:20 71.5 °F 66.1 °F 30.00 in Calm     83% 0.00 in WeatherDisplay:10.37 W/m2 CLR
00:25 71.5 °F 66.1 °F 30.01 in Calm     83% 0.00 in WeatherDisplay:10.37 W/m2 CLR
00:30 71.4 °F 66.0 °F 30.01 in Calm     83% 0.00 in WeatherDisplay:10.37 W/m2 CLR
00:40 71.5 °F 66.4 °F 30.01 in Calm     84% 0.00 in WeatherDisplay:10.37 W/m2 CLR
00:45 71.5 °F 66.1 °F 30.01 in Calm     83% 0.00 in WeatherDisplay:10.37 W/m2 CLR
00:50 71.5 °F 66.1 °F 30.01 in Calm     83% 0.00 in WeatherDisplay:10.37 W/m2 CLR
00:55 71.4 °F 66.0 °F 30.01 in Calm     83% 0.00 in WeatherDisplay:10.37 W/m2 CLR
01:00 71.5 °F 66.4 °F 30.01 in Calm     84% 0.00 in WeatherDisplay:10.37 W/m2 CLR
01:05 71.5 °F 66.4 °F 30.01 in Calm     84% 0.00 in WeatherDisplay:10.37 W/m2 CLR
01:15 71.4 °F 66.3 °F 30.00 in Calm     84% 0.00 in WeatherDisplay:10.37 W/m2 CLR
01:20 71.4 °F 66.3 °F 30.00 in Calm     84% 0.00 in WeatherDisplay:10.37 W/m2 CLR
01:25 71.4 °F 66.0 °F 30.00 in Calm     83% 0.00 in WeatherDisplay:10.37 W/m2 CLR
01:30 71.4 °F 66.0 °F 30.00 in Calm     83% 0.00 in WeatherDisplay:10.37 W/m2 CLR
01:40 71.3 °F 66.2 °F 30.00 in Calm     84% 0.00 in WeatherDisplay:10.37 W/m2 CLR
01:45 71.2 °F 66.1 °F 30.00 in Calm     84% 0.00 in WeatherDisplay:10.37 W/m2 CLR
01:50 71.1 °F 66.0 °F 30.00 in Calm     84% 0.00 in WeatherDisplay:10.37 W/m2 CLR
01:55 70.9 °F 65.8 °F 30.00 in Calm     84% 0.00 in WeatherDisplay:10.37 W/m2 CLR
02:00 70.7 °F 65.7 °F 30.00 in Calm     84% 0.00 in WeatherDisplay:10.37 W/m2 CLR
02:05 70.6 °F 65.9 °F 30.00 in Calm     85% 0.00 in WeatherDisplay:10.37 W/m2 CLR
02:10 70.5 °F 65.8 °F 30.00 in Calm     85% 0.00 in WeatherDisplay:10.37 W/m2 CLR
02:15 70.4 °F 65.7 °F 30.00 in Calm     85% 0.00 in WeatherDisplay:10.37 W/m2 CLR
02:20 70.3 °F 65.6 °F 30.00 in Calm     85% 0.00 in WeatherDisplay:10.37 W/m2 CLR
02:25 70.3 °F 65.6 °F 30.00 in Calm     85% 0.00 in WeatherDisplay:10.37 W/m2 CLR
02:30 70.4 °F 65.7 °F 30.00 in Calm     85% 0.00 in WeatherDisplay:10.37 W/m2 CLR
02:40 70.3 °F 65.6 °F 30.00 in Calm     85% 0.00 in WeatherDisplay:10.37 W/m2 CLR
02:45 70.2 °F 65.5 °F 30.00 in Calm     85% 0.00 in WeatherDisplay:10.37 W/m2 CLR
02:50 70.2 °F 65.5 °F 30.00 in Calm     85% 0.00 in WeatherDisplay:10.37 W/m2 CLR
02:55 70.1 °F 65.0 °F 30.00 in Calm     84% 0.00 in WeatherDisplay:10.37 W/m2 CLR
03:00 70.1 °F 65.0 °F 30.00 in Calm     84% 0.00 in WeatherDisplay:10.37 W/m2 CLR
03:05 70.1 °F 65.4 °F 30.00 in Calm     85% 0.00 in WeatherDisplay:10.37 W/m2 CLR
03:10 70.0 °F 65.3 °F 30.00 in Calm     85% 0.00 in WeatherDisplay:10.37 W/m2 CLR
03:15 70.0 °F 65.3 °F 30.00 in Calm     85% 0.00 in WeatherDisplay:10.37 W/m2 CLR
03:20 70.0 °F 64.9 °F 30.00 in Calm     84% 0.00 in WeatherDisplay:10.37 W/m2 CLR
03:30 69.9 °F 64.9 °F 30.01 in Calm     84% 0.00 in WeatherDisplay:10.37 W/m2 CLR
03:40 69.8 °F 65.1 °F 30.01 in Calm     85% 0.00 in WeatherDisplay:10.37 W/m2 CLR
03:45 69.7 °F 65.0 °F 30.01 in Calm     85% 0.00 in WeatherDisplay:10.37 W/m2 CLR
03:50 69.6 °F 64.9 °F 30.01 in Calm     85% 0.00 in WeatherDisplay:10.37 W/m2 CLR
04:00 69.6 °F 65.2 °F 30.02 in Calm     86% 0.00 in WeatherDisplay:10.37 W/m2 CLR
04:05 69.6 °F 65.2 °F 30.01 in Calm     86% 0.00 in WeatherDisplay:10.37 W/m2 CLR
04:10 69.6 °F 65.2 °F 30.01 in Calm     86% 0.00 in WeatherDisplay:10.37 W/m2 CLR
04:15 69.5 °F 65.1 °F 30.01 in Calm     86% 0.00 in WeatherDisplay:10.37 W/m2 CLR
04:20 69.5 °F 65.1 °F 30.01 in Calm     86% 0.00 in WeatherDisplay:10.37 W/m2 CLR
04:25 69.5 °F 64.8 °F 30.01 in Calm     85% 0.00 in WeatherDisplay:10.37 W/m2 CLR
04:30 69.5 °F 65.1 °F 30.01 in Calm     86% 0.00 in WeatherDisplay:10.37 W/m2 CLR
04:35 72.7 °F 66.9 °F 30.08 in Calm   2.0 mph 82% 0.00 in WeatherDisplay:10.37 W/m2
04:40 69.5 °F 65.1 °F 30.01 in Calm     86% 0.00 in WeatherDisplay:10.37 W/m2 CLR
04:45 69.4 °F 65.0 °F 30.01 in Calm     86% 0.00 in WeatherDisplay:10.37 W/m2 CLR
04:50 69.4 °F 65.0 °F 30.01 in Calm     86% 0.00 in WeatherDisplay:10.37 W/m2 CLR
04:55 69.4 °F 65.0 °F 30.01 in Calm     86% 0.00 in WeatherDisplay:10.37 W/m2 CLR
05:00 69.4 °F 65.0 °F 30.01 in Calm     86% 0.00 in WeatherDisplay:10.37 W/m2 CLR
05:10 69.3 °F 64.9 °F 30.01 in Calm     86% 0.00 in WeatherDisplay:10.37 W/m2 CLR
05:15 69.3 °F 64.9 °F 30.01 in Calm     86% 0.00 in WeatherDisplay:10.37 W/m2 CLR
05:20 69.3 °F 64.9 °F 30.02 in Calm     86% 0.00 in WeatherDisplay:10.37 W/m2 FEW
05:25 69.3 °F 64.9 °F 30.02 in Calm     86% 0.00 in WeatherDisplay:10.37 W/m2 FEW
05:30 69.3 °F 64.9 °F 30.02 in Calm     86% 0.00 in WeatherDisplay:10.37 W/m2 FEW
05:40 69.3 °F 64.9 °F 30.02 in Calm     86% 0.00 in WeatherDisplay:10.37 W/m2 FEW
05:45 69.3 °F 65.3 °F 30.02 in Calm     87% 0.00 in WeatherDisplay:10.37 W/m2 FEW
05:50 69.3 °F 65.3 °F 30.02 in Calm     87% 0.00 in WeatherDisplay:10.37 W/m2 FEW
06:00 69.2 °F 65.2 °F 30.02 in Calm     87% 0.00 in WeatherDisplay:10.37 W/m2 FEW
06:05 69.2 °F 65.2 °F 30.02 in Calm     87% 0.00 in WeatherDisplay:10.37 W/m2 FEW
06:10 69.2 °F 65.2 °F 30.02 in Calm     87% 0.00 in WeatherDisplay:10.37 W/m2 FEW
06:15 69.2 °F 65.2 °F 30.02 in Calm     87% 0.00 in WeatherDisplay:10.37 W/m2 FEW
06:20 69.2 °F 65.2 °F 30.02 in Calm     87% 0.00 in WeatherDisplay:10.37 W/m2 CLR
06:30 69.2 °F 65.2 °F 30.02 in Calm     87% 0.00 in WeatherDisplay:10.37 W/m2 CLR
06:40 69.2 °F 65.2 °F 30.02 in Calm     87% 0.00 in WeatherDisplay:10.37 W/m2 CLR
06:45 69.2 °F 65.2 °F 30.02 in Calm     87% 0.00 in WeatherDisplay:10.37 W/m2 CLR
06:50 69.2 °F 65.2 °F 30.02 in Calm     87% 0.00 in WeatherDisplay:10.37 W/m2 CLR
06:55 69.2 °F 65.2 °F 30.02 in Calm     87% 0.00 in WeatherDisplay:10.37 W/m2 CLR
07:00 69.1 °F 65.1 °F 30.02 in Calm     87% 0.00 in WeatherDisplay:10.37 W/m2 CLR
07:05 69.1 °F 65.1 °F 30.02 in Calm     87% 0.00 in WeatherDisplay:10.37 W/m2 CLR
07:10 69.1 °F 65.1 °F 30.02 in Calm     87% 0.00 in WeatherDisplay:10.37 W/m2 CLR
07:15 69.1 °F 65.1 °F 30.03 in Calm     87% 0.00 in WeatherDisplay:10.37 W/m2 CLR
07:20 69.1 °F 65.1 °F 30.03 in Calm     87% 0.00 in WeatherDisplay:10.37 W/m2 OVC
07:25 69.1 °F 65.1 °F 30.03 in Calm     87% 0.00 in WeatherDisplay:10.37 W/m2 OVC
07:35 69.2 °F 65.2 °F 30.04 in Calm     87% 0.00 in WeatherDisplay:10.37 W/m2 OVC
07:40 69.2 °F 65.2 °F 30.04 in Calm     87% 0.00 in WeatherDisplay:10.37 W/m2 OVC
07:45 69.3 °F 65.3 °F 30.05 in Calm     87% 0.00 in WeatherDisplay:10.37 W/m2 OVC
07:50 69.3 °F 65.3 °F 30.05 in Calm     87% 0.00 in WeatherDisplay:10.37 W/m2 OVC
07:55 69.4 °F 65.3 °F 30.05 in Calm     87% 0.00 in WeatherDisplay:10.37 W/m2 OVC
08:00 69.4 °F 65.4 °F 30.05 in Calm     87% 0.00 in WeatherDisplay:10.37 W/m2 OVC
08:05 69.4 °F 65.4 °F 30.06 in Calm     87% 0.00 in WeatherDisplay:10.37 W/m2 OVC
08:15 69.6 °F 65.2 °F 30.05 in Calm     86% 0.00 in WeatherDisplay:10.37 W/m2 OVC
08:20 69.7 °F 65.3 °F 30.06 in Calm     86% 0.00 in WeatherDisplay:10.37 W/m2 OVC
08:25 69.7 °F 65.3 °F 30.06 in Calm     86% 0.00 in WeatherDisplay:10.37 W/m2 OVC
08:30 69.8 °F 65.4 °F 30.06 in Calm     86% 0.00 in WeatherDisplay:10.37 W/m2 OVC
08:35 69.8 °F 65.4 °F 30.06 in Calm   1.0 mph 86% 0.00 in WeatherDisplay:10.37 W/m2 OVC
08:40 69.9 °F 65.5 °F 30.06 in Calm   1.0 mph 86% 0.00 in WeatherDisplay:10.37 W/m2 OVC
08:45 69.9 °F 65.5 °F 30.06 in Calm   1.0 mph 86% 0.00 in WeatherDisplay:10.37 W/m2 OVC
08:50 70.0 °F 65.6 °F 30.06 in Calm     86% 0.00 in WeatherDisplay:10.37 W/m2 OVC
08:55 70.0 °F 65.3 °F 30.06 in Calm   1.0 mph 85% 0.00 in WeatherDisplay:10.37 W/m2 OVC
09:00 70.0 °F 65.6 °F 30.06 in Calm     86% 0.00 in WeatherDisplay:10.37 W/m2 OVC
09:05 70.0 °F 65.6 °F 30.06 in Calm     86% 0.00 in WeatherDisplay:10.37 W/m2 OVC
09:10 70.0 °F 65.6 °F 30.06 in Calm     86% 0.00 in WeatherDisplay:10.37 W/m2 OVC
09:15 70.1 °F 65.4 °F 30.06 in Calm     85% 0.00 in WeatherDisplay:10.37 W/m2 OVC
09:20 70.2 °F 65.5 °F 30.06 in Calm     85% 0.00 in WeatherDisplay:10.37 W/m2 OVC
09:25 70.3 °F 65.6 °F 30.06 in Calm     85% 0.00 in WeatherDisplay:10.37 W/m2 OVC
09:30 70.4 °F 65.7 °F 30.06 in Calm     85% 0.00 in WeatherDisplay:10.37 W/m2 OVC
09:40 70.6 °F 65.9 °F 30.06 in Calm     85% 0.00 in WeatherDisplay:10.37 W/m2 OVC
09:45 70.7 °F 66.0 °F 30.06 in Calm     85% 0.00 in WeatherDisplay:10.37 W/m2 OVC
09:50 70.9 °F 66.2 °F 30.06 in Calm     85% 0.00 in WeatherDisplay:10.37 W/m2 OVC
09:55 71.1 °F 66.0 °F 30.06 in Calm   2.0 mph 84% 0.00 in WeatherDisplay:10.37 W/m2 OVC
10:00 71.2 °F 66.1 °F 30.06 in Calm   2.0 mph 84% 0.00 in WeatherDisplay:10.37 W/m2 OVC
10:05 71.2 °F 66.1 °F 30.06 in WNW 1.0 mph 2.0 mph 84% 0.00 in WeatherDisplay:10.37 W/m2 OVC
10:10 71.3 °F 66.2 °F 30.06 in Calm   2.0 mph 84% 0.00 in WeatherDisplay:10.37 W/m2 OVC
10:15 71.4 °F 66.3 °F 30.06 in Calm   2.0 mph 84% 0.00 in WeatherDisplay:10.37 W/m2 OVC
10:20 71.4 °F 66.0 °F 30.06 in Calm   2.0 mph 83% 0.00 in WeatherDisplay:10.37 W/m2 OVC
10:25 71.4 °F 66.0 °F 30.06 in West 1.0 mph 2.0 mph 83% 0.00 in WeatherDisplay:10.37 W/m2 OVC
10:30 71.5 °F 66.4 °F 30.06 in Calm   2.0 mph 84% 0.00 in WeatherDisplay:10.37 W/m2 OVC
10:40 71.7 °F 66.6 °F 30.07 in Calm   2.0 mph 84% 0.00 in WeatherDisplay:10.37 W/m2 OVC
10:50 71.7 °F 66.3 °F 30.07 in Calm   1.0 mph 83% 0.00 in WeatherDisplay:10.37 W/m2 OVC
11:00 71.7 °F 66.3 °F 30.07 in Calm   1.0 mph 83% 0.00 in WeatherDisplay:10.37 W/m2 OVC
11:05 71.8 °F 66.7 °F 30.08 in Calm     84% 0.00 in WeatherDisplay:10.37 W/m2 OVC
11:10 71.8 °F 66.4 °F 30.08 in Calm   1.0 mph 83% 0.00 in WeatherDisplay:10.37 W/m2 OVC
11:15 71.7 °F 66.3 °F 30.08 in Calm   1.0 mph 83% 0.00 in WeatherDisplay:10.37 W/m2 OVC
11:20 71.7 °F 66.2 °F 30.08 in Calm   1.0 mph 83% 0.00 in WeatherDisplay:10.37 W/m2 OVC
11:25 71.7 °F 66.6 °F 30.07 in Calm   1.0 mph 84% 0.00 in WeatherDisplay:10.37 W/m2 OVC
11:30 71.8 °F 66.4 °F 30.07 in Calm   2.0 mph 83% 0.00 in WeatherDisplay:10.37 W/m2 OVC
11:35 71.9 °F 66.4 °F 30.07 in Calm   1.0 mph 83% 0.00 in WeatherDisplay:10.37 W/m2 OVC
11:45 72.0 °F 66.6 °F 30.07 in WNW 1.0 mph 1.0 mph 83% 0.00 in WeatherDisplay:10.37 W/m2 OVC
11:55 72.0 °F 66.6 °F 30.08 in Calm   1.0 mph 83% 0.00 in WeatherDisplay:10.37 W/m2 OVC
12:05 72.2 °F 66.7 °F 30.07 in Calm   1.0 mph 83% 0.00 in WeatherDisplay:10.37 W/m2 OVC
12:15 72.5 °F 66.7 °F 30.08 in Calm   1.0 mph 82% 0.00 in WeatherDisplay:10.37 W/m2 OVC
12:20 72.7 °F 66.9 °F 30.08 in Calm   1.0 mph 82% 0.00 in WeatherDisplay:10.37 W/m2 -RA
12:25 72.8 °F 66.6 °F 30.08 in Calm   1.0 mph 81% 0.00 in WeatherDisplay:10.37 W/m2 -RA
12:40 72.5 °F 67.0 °F 30.09 in Calm     83% 0.00 in WeatherDisplay:10.37 W/m2 -RA
12:50 71.8 °F 67.4 °F 30.08 in Calm   1.0 mph 86% 0.00 in WeatherDisplay:10.37 W/m2 -RA
12:55 71.6 °F 67.5 °F 30.08 in Calm     87% 0.00 in WeatherDisplay:10.37 W/m2 -RA
13:00 71.3 °F 67.2 °F 30.08 in Calm   1.0 mph 87% 0.00 in WeatherDisplay:10.37 W/m2 -RA
13:05 71.1 °F 67.4 °F 30.08 in Calm   1.0 mph 88% 0.00 in WeatherDisplay:10.37 W/m2 -RA
13:10 71.0 °F 67.3 °F 30.08 in Calm     88% 0.00 in WeatherDisplay:10.37 W/m2 -RA
13:15 70.9 °F 67.2 °F 30.08 in Calm     88% 0.00 in WeatherDisplay:10.37 W/m2 -RA
13:20 70.8 °F 67.4 °F 30.08 in Calm     89% 0.00 in WeatherDisplay:10.37 W/m2 -RA
13:25 70.6 °F 67.2 °F 30.08 in Calm   1.0 mph 89% 0.01 in WeatherDisplay:10.37 W/m2 -RA
13:30 70.5 °F 67.4 °F 30.08 in Calm   1.0 mph 90% 0.00 in WeatherDisplay:10.37 W/m2 -RA
13:40 70.2 °F 67.2 °F 30.09 in Calm   1.0 mph 90% 0.01 in WeatherDisplay:10.37 W/m2 -RA
13:45 70.1 °F 67.0 °F 30.09 in Calm     90% 0.02 in WeatherDisplay:10.37 W/m2 RA
13:50 70.0 °F 67.3 °F 30.09 in Calm     91% 0.02 in WeatherDisplay:10.37 W/m2 RA
13:55 70.0 °F 67.3 °F 30.09 in Calm     91% 0.02 in WeatherDisplay:10.37 W/m2 RA
14:00 69.9 °F 67.2 °F 30.09 in Calm   1.0 mph 91% 0.03 in WeatherDisplay:10.37 W/m2 RA
14:10 69.9 °F 67.5 °F 30.09 in Calm     92% 0.02 in WeatherDisplay:10.37 W/m2 RA
14:15 70.0 °F 67.6 °F 30.09 in Calm   1.0 mph 92% 0.01 in WeatherDisplay:10.37 W/m2 -RA
14:20 70.0 °F 67.6 °F 30.09 in Calm   1.0 mph 92% 0.01 in WeatherDisplay:10.37 W/m2 -RA
14:25 70.1 °F 67.7 °F 30.09 in Calm     92% 0.00 in WeatherDisplay:10.37 W/m2 -RA
14:30 70.0 °F 67.6 °F 30.09 in Calm   1.0 mph 92% 0.01 in WeatherDisplay:10.37 W/m2 -RA
14:40 69.8 °F 67.4 °F 30.09 in Calm   1.0 mph 92% 0.01 in WeatherDisplay:10.37 W/m2 -RA
14:45 69.8 °F 67.3 °F 30.09 in Calm   1.0 mph 92% 0.01 in WeatherDisplay:10.37 W/m2 -RA
14:50 69.6 °F 67.2 °F 30.09 in Calm   1.0 mph 92% 0.01 in WeatherDisplay:10.37 W/m2 -RA
14:55 69.8 °F 67.4 °F 30.09 in Calm     92% 0.00 in WeatherDisplay:10.37 W/m2 -RA
15:00 70.0 °F 67.5 °F 30.08 in Calm     92% 0.00 in WeatherDisplay:10.37 W/m2 -RA
15:05 70.1 °F 67.7 °F 30.08 in Calm     92% 0.00 in WeatherDisplay:10.37 W/m2 -RA
15:10 69.9 °F 67.5 °F 30.07 in Calm     92% 0.01 in WeatherDisplay:10.37 W/m2 -RA
15:15 69.9 °F 67.5 °F 30.07 in Calm     92% 0.00 in WeatherDisplay:10.37 W/m2 -RA
15:20 69.8 °F 67.4 °F 30.07 in Calm   1.0 mph 92% 0.00 in WeatherDisplay:10.37 W/m2 -RA
15:25 69.9 °F 67.5 °F 30.07 in Calm     92% 0.00 in WeatherDisplay:10.37 W/m2 -RA
15:30 69.9 °F 67.5 °F 30.07 in Calm     92% 0.00 in WeatherDisplay:10.37 W/m2 -RA
15:35 69.9 °F 67.5 °F 30.06 in Calm   1.0 mph 92% 0.00 in WeatherDisplay:10.37 W/m2 -RA
15:40 69.8 °F 67.4 °F 30.06 in Calm   1.0 mph 92% 0.01 in WeatherDisplay:10.37 W/m2 -RA
15:45 69.8 °F 67.4 °F 30.06 in Calm   1.0 mph 92% 0.00 in WeatherDisplay:10.37 W/m2 -RA
15:50 69.9 °F 67.5 °F 30.05 in Calm     92% 0.00 in WeatherDisplay:10.37 W/m2 -RA
16:00 69.8 °F 67.4 °F 30.05 in Calm   1.0 mph 92% 0.00 in WeatherDisplay:10.37 W/m2 -RA
16:05 69.7 °F 67.3 °F 30.05 in Calm   1.0 mph 92% 0.00 in WeatherDisplay:10.37 W/m2 -RA
16:10 69.8 °F 67.4 °F 30.05 in Calm   1.0 mph 92% 0.00 in WeatherDisplay:10.37 W/m2 -RA
16:15 69.7 °F 67.3 °F 30.05 in Calm   1.0 mph 92% 0.00 in WeatherDisplay:10.37 W/m2 -RA
16:20 69.7 °F 67.3 °F 30.05 in Calm   1.0 mph 92% 0.01 in WeatherDisplay:10.37 W/m2 -RA
16:25 69.7 °F 67.3 °F 30.05 in Calm   1.0 mph 92% 0.00 in WeatherDisplay:10.37 W/m2 -RA
16:30 69.7 °F 67.3 °F 30.04 in Calm   1.0 mph 92% 0.00 in WeatherDisplay:10.37 W/m2 -RA
16:35 69.8 °F 67.7 °F 30.03 in Calm   1.0 mph 93% 0.00 in WeatherDisplay:10.37 W/m2 -RA
16:40 69.7 °F 67.6 °F 30.03 in Calm   1.0 mph 93% 0.00 in WeatherDisplay:10.37 W/m2 -RA
16:45 69.7 °F 67.3 °F 30.03 in Calm   1.0 mph 92% 0.00 in WeatherDisplay:10.37 W/m2 -RA
16:55 69.9 °F 67.7 °F 30.04 in Calm   1.0 mph 93% 0.01 in WeatherDisplay:10.37 W/m2 -RA
17:00 70.0 °F 67.9 °F 30.04 in Calm   1.0 mph 93% 0.00 in WeatherDisplay:10.37 W/m2 -RA
17:10 70.1 °F 68.0 °F 30.04 in Calm     93% 0.00 in WeatherDisplay:10.37 W/m2 -RA
17:20 70.0 °F 67.9 °F 30.04 in Calm     93% 0.00 in WeatherDisplay:10.37 W/m2 -RA
17:25 69.9 °F 67.8 °F 30.04 in Calm     93% 0.00 in WeatherDisplay:10.37 W/m2 -RA
17:30 69.9 °F 67.8 °F 30.05 in Calm     93% 0.00 in WeatherDisplay:10.37 W/m2 -RA
17:35 69.8 °F 67.7 °F 30.05 in Calm     93% 0.00 in WeatherDisplay:10.37 W/m2 -RA
17:40 69.6 °F 67.2 °F 30.05 in Calm     92% 0.00 in WeatherDisplay:10.37 W/m2 -RA
17:45 69.6 °F 67.5 °F 30.05 in Calm     93% 0.00 in WeatherDisplay:10.37 W/m2 -RA
17:50 69.6 °F 67.5 °F 30.05 in Calm     93% 0.00 in WeatherDisplay:10.37 W/m2 -RA
17:55 69.5 °F 67.1 °F 30.04 in Calm     92% 0.00 in WeatherDisplay:10.37 W/m2 -RA
18:00 69.5 °F 67.4 °F 30.05 in Calm     93% 0.00 in WeatherDisplay:10.37 W/m2 -RA
18:10 69.3 °F 66.9 °F 30.05 in Calm     92% 0.00 in WeatherDisplay:10.37 W/m2 -RA
18:15 69.2 °F 66.8 °F 30.06 in Calm     92% 0.00 in WeatherDisplay:10.37 W/m2 -RA
18:20 69.2 °F 67.1 °F 30.06 in Calm     93% 0.00 in WeatherDisplay:10.37 W/m2 -RA
18:25 69.1 °F 67.0 °F 30.06 in Calm     93% 0.00 in WeatherDisplay:10.37 W/m2 -RA
18:30 69.0 °F 66.6 °F 30.05 in Calm     92% 0.01 in WeatherDisplay:10.37 W/m2 -RA
18:40 69.2 °F 67.1 °F 30.05 in Calm     93% 0.00 in WeatherDisplay:10.37 W/m2 -RA
18:45 69.2 °F 67.1 °F 30.06 in Calm     93% 0.01 in WeatherDisplay:10.37 W/m2 -RA
18:50 69.1 °F 67.0 °F 30.06 in Calm     93% 0.00 in WeatherDisplay:10.37 W/m2 -RA
18:55 69.2 °F 67.0 °F 30.06 in Calm     93% 0.00 in WeatherDisplay:10.37 W/m2 -RA
19:00 69.1 °F 67.0 °F 30.06 in Calm     93% 0.00 in WeatherDisplay:10.37 W/m2 -RA
19:05 69.0 °F 66.9 °F 30.05 in Calm     93% 0.00 in WeatherDisplay:10.37 W/m2 -RA
19:10 69.0 °F 66.9 °F 30.05 in Calm     93% 0.00 in WeatherDisplay:10.37 W/m2 -RA
19:15 69.0 °F 66.9 °F 30.05 in Calm     93% 0.00 in WeatherDisplay:10.37 W/m2 -RA
19:20 69.0 °F 66.9 °F 30.05 in Calm     93% 0.00 in WeatherDisplay:10.37 W/m2 -RA
19:25 68.9 °F 66.8 °F 30.05 in Calm     93% 0.01 in WeatherDisplay:10.37 W/m2 -RA
19:30 68.8 °F 66.7 °F 30.05 in Calm     93% 0.00 in WeatherDisplay:10.37 W/m2 -RA
19:35 68.7 °F 66.6 °F 30.05 in Calm     93% 0.00 in WeatherDisplay:10.37 W/m2 -RA
19:40 68.6 °F 66.5 °F 30.05 in Calm     93% 0.00 in WeatherDisplay:10.37 W/m2 -RA
19:45 68.6 °F 66.5 °F 30.04 in Calm   1.0 mph 93% 0.00 in WeatherDisplay:10.37 W/m2 -RA
19:50 68.5 °F 66.4 °F 30.04 in Calm   1.0 mph 93% 0.00 in WeatherDisplay:10.37 W/m2 OVC
19:55 68.5 °F 66.4 °F 30.04 in Calm   1.0 mph 93% 0.00 in WeatherDisplay:10.37 W/m2 OVC
20:00 68.5 °F 66.4 °F 30.05 in Calm   1.0 mph 93% 0.00 in WeatherDisplay:10.37 W/m2 OVC
20:05 68.4 °F 66.3 °F 30.05 in Calm   1.0 mph 93% 0.00 in WeatherDisplay:10.37 W/m2 OVC
20:10 68.4 °F 66.3 °F 30.05 in Calm   1.0 mph 93% 0.00 in WeatherDisplay:10.37 W/m2 OVC
20:15 68.4 °F 66.3 °F 30.05 in Calm     93% 0.00 in WeatherDisplay:10.37 W/m2 OVC
20:20 68.4 °F 66.3 °F 30.04 in Calm   1.0 mph 93% 0.00 in WeatherDisplay:10.37 W/m2 BKN
20:25 68.4 °F 66.3 °F 30.05 in Calm   1.0 mph 93% 0.00 in WeatherDisplay:10.37 W/m2 BKN
20:30 68.4 °F 66.3 °F 30.05 in Calm     93% 0.00 in WeatherDisplay:10.37 W/m2 BKN
20:35 68.4 °F 66.3 °F 30.05 in Calm   1.0 mph 93% 0.00 in WeatherDisplay:10.37 W/m2 BKN
20:40 68.4 °F 66.3 °F 30.05 in Calm   1.0 mph 93% 0.00 in WeatherDisplay:10.37 W/m2 BKN
20:45 68.3 °F 66.2 °F 30.05 in Calm   1.0 mph 93% 0.00 in WeatherDisplay:10.37 W/m2 BKN
20:50 68.3 °F 66.2 °F 30.06 in Calm     93% 0.00 in WeatherDisplay:10.37 W/m2 BKN
20:55 68.3 °F 66.2 °F 30.06 in Calm     93% 0.00 in WeatherDisplay:10.37 W/m2 BKN
21:00 68.3 °F 66.2 °F 30.06 in Calm     93% 0.00 in WeatherDisplay:10.37 W/m2 BKN
21:10 68.3 °F 66.2 °F 30.06 in Calm     93% 0.00 in WeatherDisplay:10.37 W/m2 BKN
21:15 68.2 °F 66.1 °F 30.06 in Calm   1.0 mph 93% 0.00 in WeatherDisplay:10.37 W/m2 BKN
21:20 68.2 °F 66.1 °F 30.07 in Calm   1.0 mph 93% 0.00 in WeatherDisplay:10.37 W/m2 -RA
21:25 68.1 °F 66.0 °F 30.07 in Calm   1.0 mph 93% 0.00 in WeatherDisplay:10.37 W/m2 -RA
21:30 68.1 °F 66.0 °F 30.07 in Calm   1.0 mph 93% 0.00 in WeatherDisplay:10.37 W/m2 -RA
21:35 68.1 °F 66.0 °F 30.06 in Calm   1.0 mph 93% 0.00 in WeatherDisplay:10.37 W/m2 -RA
21:40 68.1 °F 66.0 °F 30.06 in Calm   1.0 mph 93% 0.00 in WeatherDisplay:10.37 W/m2 -RA
21:45 68.1 °F 66.0 °F 30.07 in Calm   2.0 mph 93% 0.00 in WeatherDisplay:10.37 W/m2 -RA
21:50 68.1 °F 66.0 °F 30.06 in Calm   1.0 mph 93% 0.00 in WeatherDisplay:10.37 W/m2 -RA
21:55 68.0 °F 65.9 °F 30.06 in Calm   1.0 mph 93% 0.00 in WeatherDisplay:10.37 W/m2 -RA
22:00 68.0 °F 65.9 °F 30.07 in Calm   1.0 mph 93% 0.00 in WeatherDisplay:10.37 W/m2 -RA
22:05 68.0 °F 65.9 °F 30.07 in Calm   1.0 mph 93% 0.00 in WeatherDisplay:10.37 W/m2 -RA
22:10 68.0 °F 65.9 °F 30.07 in Calm   1.0 mph 93% 0.00 in WeatherDisplay:10.37 W/m2 -RA
22:15 68.0 °F 65.9 °F 30.07 in Calm   1.0 mph 93% 0.00 in WeatherDisplay:10.37 W/m2 -RA
22:20 68.1 °F 66.3 °F 30.07 in Calm   1.0 mph 94% 0.00 in WeatherDisplay:10.37 W/m2 OVC
22:25 68.1 °F 66.3 °F 30.07 in Calm   1.0 mph 94% 0.00 in WeatherDisplay:10.37 W/m2 OVC
22:30 68.1 °F 66.3 °F 30.08 in Calm     94% 0.00 in WeatherDisplay:10.37 W/m2 OVC
22:40 68.1 °F 66.3 °F 30.08 in Calm     94% 0.00 in WeatherDisplay:10.37 W/m2 OVC
22:45 68.2 °F 66.4 °F 30.08 in Calm     94% 0.00 in WeatherDisplay:10.37 W/m2 OVC
22:50 68.2 °F 66.4 °F 30.08 in Calm   1.0 mph 94% 0.00 in WeatherDisplay:10.37 W/m2 -RA
22:55 68.2 °F 66.4 °F 30.09 in Calm   1.0 mph 94% 0.01 in WeatherDisplay:10.37 W/m2 -RA
23:00 68.2 °F 66.4 °F 30.09 in Calm     94% 0.01 in WeatherDisplay:10.37 W/m2 -RA
23:05 68.3 °F 66.5 °F 30.09 in Calm     94% 0.00 in WeatherDisplay:10.37 W/m2 -RA
23:10 68.3 °F 66.5 °F 30.09 in Calm     94% 0.01 in WeatherDisplay:10.37 W/m2 -RA
23:20 68.3 °F 66.5 °F 30.09 in Calm     94% 0.00 in WeatherDisplay:10.37 W/m2 -RA
23:25 68.3 °F 66.5 °F 30.09 in Calm   1.0 mph 94% 0.01 in WeatherDisplay:10.37 W/m2 -RA
23:30 68.3 °F 66.5 °F 30.09 in Calm   1.0 mph 94% 0.01 in WeatherDisplay:10.37 W/m2 -RA
23:35 68.3 °F 66.5 °F 30.09 in Calm     94% 0.00 in WeatherDisplay:10.37 W/m2 -RA
23:40 68.3 °F 66.5 °F 30.09 in Calm   1.0 mph 94% 0.00 in WeatherDisplay:10.37 W/m2 -RA
23:45 68.3 °F 66.5 °F 30.08 in Calm   1.0 mph 94% 0.01 in WeatherDisplay:10.37 W/m2 -RA
23:50 68.3 °F 66.5 °F 30.08 in Calm   1.0 mph 94% 0.00 in WeatherDisplay:10.37 W/m2 -RA
23:55 68.3 °F 66.5 °F 30.08 in Calm   1.0 mph 94% 0.00 in WeatherDisplay:10.37 W/m2 -RA
Piedmont Bend
Compliments of Weather Underground - 4 mb